Regional Weather Roundup
Issued by NWS Newport/Morehead, NC

Current Version | Previous Version | Graphics & Text | Print | Product List | Glossary Off
Versions: 1 2 3 4 5 6 7 8 9 10 11 12 13 14 15 16 17 18 19 20 21 22 23 24 25 26 27 28 29 30 31 32 33 34 35 36 37 38 39 40 41 42 43 44 45 46 47 48 49 50

000
ASUS42 KMHX 300325
RWRMHX
WEATHER ROUNDUP FOR EASTERN NORTH CAROLINA
NATIONAL WEATHER SERVICE NEWPORT/MOREHEAD CITY NC
1100 PM EDT MON JUN 29 2015

NOTE: "FAIR" INDICATES FEW OR NO CLOUDS BELOW 12,000 FEET
WITH NO SIGNIFICANT WEATHER AND/OR OBSTRUCTIONS TO VISIBILITY

NCZ015>017-031-032-045>047-102-103-300400-
NORTH COAST

CITY           SKY/WX    TMP DP  RH WIND       PRES   REMARKS
EDENTON        CLOUDY    77  70  77 SE6       29.97S
ELIZABETH CITY PTCLDY    76  71  85 SE7       29.98S
KITTY HAWK     PTCLDY    74  69  83 CALM      29.98R
MANTEO         PTCLDY    74  70  89 SE6       29.99S

$$

NCZ045>047-081-094-103-104-300400-
CENTRAL COAST

CITY           SKY/WX    TMP DP  RH WIND       PRES   REMARKS
FRISCO         MOCLDY    76  73  91 CALM      29.98S
SWANQUARTER      N/A     79 N/A N/A SW7       29.94S

$$

NCZ095-097-098-100-101-300400-
SOUTHERN COAST

CITY           SKY/WX    TMP DP  RH WIND       PRES   REMARKS
BEAUFORT       PTCLDY    79  73  82 SW10      29.98R
CEDAR ISLAND     N/A     77 N/A N/A SW3       30.00S
JACKSONVILLE   CLEAR     76  70  82 SW5       29.97R
PINEY ISLAND   PTCLDY   N/A N/A N/A SW5       29.97S
WILMINGTON     PTCLDY    77  70  79 S6        29.97S


$$

NCZ011>013-027>030-043-044-078>080-089-090>093-098-300400-
COASTAL PLAIN

CITY           SKY/WX    TMP DP  RH WIND       PRES   REMARKS
AHOSKIE        CLEAR     70  66  86 CALM      29.97S
CLINTON        PTCLDY    74  73  96 CALM      29.97R
ELIZABETHTOWN  CLEAR     75  68  78 S3        29.97S
GOLDSBORO      PTCLDY    76  69  80 SE2       29.95R
GREENVILLE     CLEAR     75  68  78 CALM      29.99R
HAVELOCK       PTCLDY    76  72  87 S5        29.98R
KENANSVILLE    CLEAR     73  70  91 CALM      29.98R
KINSTON        CLEAR     76  70  82 S5        29.98R
NEW BERN       CLEAR     75  72  90 S3        29.98S
RICHLANDS      CLEAR     73  66  78 S3        29.98R
ROCKY MOUNT    CLEAR     73  68  84 CALM      29.97R
WASHINGTON     PTCLDY    76  68  76 S3        29.98R
WHITEVILLE     PTCLDY    75  69  81 S3        29.97S

$$

AMZ130-135-150-152-154-156-158-170-250-252-270-ANZ085-086-088-633-658-670-300400-
MARINE OBSERVATIONS

STATION/POSITION TIME  TEMP    WIND        PRES    WAVE   SWELL
                       AIR SEA DIR/SP/G            HT/PER HT/PER
                 (UTC) (F)     (DEG/KT/KT) (MB)    (FT/S) (FT/S)
CHESAPEAKE LIGHT 0300   76     140/ 14/ 14 1015.7
64 E VA BEACH    0250   76 75  110/  8/ 10 1015.1    3/ 7   3/ 7
DUCK             0300   74 69  140/  5/  7 1014.4
2 E DUCK         0211      74                N/A     2/ 8
OREGON INLET     0300   73 75   90/  3/  4 1015.3
13E OREGON INLT  0300      75                N/A     4/ 8
HATTERAS CG      0300   79 81  240/  2/  3 1015.0
DIAMOND BUOY     0250   80 80  270/  8/ 10 1015.3    4/ 8   3/ 8
CAPE LOOKOUT     0300   79     230/  8/ 10 1015.0
BEAUFORT LAB     0300   79 81  230/  4/ 10 1014.4
30 SE NEW RVR IN 0208   81 81  240/ 14/ 17 1015.1
27 SE WRIGHTSVLE 0300      81  240/ 16/ 17   N/A
5 SE WRIGHTSVLE  0208   80 79  230/ 14/ 19 1014.8
225 S CAPE HAT   0250   79 80  260/ 17/ 21 1017.9    6/ 7
41 SE CHARLESTON 0250   82 83  210/ 16/ 17 1015.6    4/ 8   3/ 8

$$



USA.gov is the U.S. government's official web portal to all federal, state and local government web resources and services.